This demonstration page uses our WeatherBlox Daily Observations layout. Learn more.

Left ArrowRight Arrow

30.00354, -91.81873

Hourly Observations for May 16, 2022

Temp ( °F °C ) Dew Point ( °F °C ) Humidity (%) Winds ( mph kmh ) Pressure ( in mb ) Visibility ( mi km ) Precip ( " mm )
12:53 am 00:53 Clear 73 22.8 71 21.7 94 94 SSW 6 9 29.93 1014 10 16 0.00 0.00
1:53 am 01:53 Clear 74 23.3 71 21.7 91 91 WSW 3 6 29.93 1014 10 16 0.00 0.00
2:53 am 02:53 Clear 75 23.9 72 22.2 90 90 W 6 9 29.93 1014 10 16 0.00 0.00
3:53 am 03:53 Clear 74 23.3 72 22.2 94 94 WSW 7 11 29.93 1014 10 16 0.00 0.00
4:53 am 04:53 Clear 75 23.9 72 22.2 90 90 W 13 20 29.93 1014 10 16 0.00 0.00
5:53 am 05:53 Clear 75 23.9 72 22.2 90 90 W 7 11 29.93 1013 10 16 0.00 0.00
6:53 am 06:53 Sunny 75 23.9 72 22.2 90 90 W 7 11 29.94 1014 10 16 0.00 0.00
7:53 am 07:53 Sunny 77 25 72 22.2 85 85 W 6 9 29.93 1014 10 16 0.00 0.00
8:53 am 08:53 Sunny 80 26.7 71 21.7 74 74 WNW 7 11 29.93 1014 10 16 0.00 0.00
9:53 am 09:53 Sunny 84 28.9 71 21.7 65 65 W 7 11 29.93 1014 10 16 0.00 0.00
10:53 am 10:53 Sunny 86 30 70 21.1 59 59 WNW 8 13 29.96 1015 10 16 0.00 0.00
11:53 am 11:53 Mostly Sunny 87 30.6 70 21.1 57 57 VRB 6 9 29.96 1015 10 16 0.00 0.00
12:53 pm 12:53 Sunny 89 31.7 69 20.6 52 52 S 7 11 29.95 1014 10 16 0.00 0.00
1:53 pm 13:53 Sunny 91 32.8 66 18.9 44 44 WSW 10 17 29.94 1014 10 16 0.00 0.00
2:53 pm 14:53 Sunny 90 32.2 75 23.9 62 62 S 12 19 29.92 1013 10 16 0.00 0.00
3:53 pm 15:53 Mostly Cloudy 89 31.7 72 22.2 57 57 SW 13 20 29.91 1013 10 16 0.00 0.00
4:53 pm 16:53 Sunny 89 31.7 71 21.7 55 55 SW 14 22 29.90 1012 10 16 0.00 0.00
5:53 pm 17:53 Sunny 87 30.6 71 21.7 59 59 WSW 13 20 29.89 1012 10 16 0.00 0.00
6:53 pm 18:53 Sunny 84 28.9 72 22.2 67 67 WSW 13 20 29.90 1013 10 16 0.00 0.00
7:53 pm 19:53 Sunny 81 27.2 72 22.2 74 74 WSW 10 17 29.92 1013 10 16 0.00 0.00
8:53 pm 20:53 Clear 79 26.1 72 22.2 79 79 SW 9 15 29.93 1013 10 16 0.00 0.00
9:53 pm 21:53 Clear 77 25 72 22.2 85 85 SSW 6 9 29.94 1014 10 16 0.00 0.00
10:53 pm 22:53 Clear 76 24.4 72 22.2 88 88 SW 6 9 29.96 1015 10 16 0.00 0.00
11:53 pm 23:53 Clear 76 24.4 72 22.2 88 88 SSW 3 6 29.95 1014 10 16 0.00 0.00

Powered by AerisWeather